Content
SEND FEEDBACK

Daily
Averages
Monthly
Summary
United States of America

PORT JERVIS, NEW YORK


Home > North America > United States > New York
Elevation: 428 feet     Latitude: 41 22N     Longitude: 074 42W

WEATHER
 
SELECT A DAY
Number of Records: 157,941;   Date Range: 3/7/98 - 8/28/14
 
SHARE

PRINT THIS DATA

[ ← Previous Day ]
WEATHER ALMANAC - DECEMBER 22, 2013
[ Next Day → ]
[ °C ]   °F
Weather ElementAverageHighLow
Temperature54.4 °F64 °F (2:53 pm)41 °F (1:53 am)
Dewpoint52.5 °F59 °F (11:14 am)39.9 °F (1:53 am)
Humidity93.6 %100 % (2:39 am)70 % (3:53 pm)
Barometer29.85 in29.96 in (8:53 pm)29.77 in (5:28 am)
Wind Speed5.3 mph12.7 mph (2:53 pm)
Wind Gust21.9 mph (3:53 pm)
Weather ElementAverage
Visibility6.4 mi
Wind DirectionSSW (197.3 °)

Weather ElementTotal
Precipitation0.05 in
Heating Degree Days12.5 (Base 65)
Growing Degree Days2.5 (Base 50)
Averaged from 41 records on December 22, 2013
WEATHER CONDITIONS BREAKOUT
WIND DIRECTION BREAKOUT
WEATHER BY HOUR - DECEMBER 22, 2013
[ °C ]   °F
Local TimeTemperatureDewpointHumidityBarometerVisibilityWind DirectionWind SpeedGust SpeedPrecipitationEventsConditions
1:53 AM41.0 °F39.9 °F96 %29.86 in4.0 miCalm0.00 inScattered Clouds
2:39 AM42.1 °F42.1 °F100 %29.82 in1.8 miCalm0.01 inMostly Cloudy
2:53 AM42.1 °F42.1 °F100 %29.83 in1.5 miSouth (180°)3.5 mph0.01 inMostly Cloudy
3:22 AM44.1 °F44.1 °F100 %29.80 in1.0 miWest (260°)3.5 mphOvercast
3:40 AM42.1 °F42.1 °F100 %29.80 in0.8 miSouth (190°)4.6 mphOvercast
3:53 AM42.1 °F41.0 °F96 %29.81 in0.8 miSSW (210°)4.6 mphOvercast
4:19 AM46.9 °F46.9 °F100 %29.79 in1.0 miSW (220°)4.6 mphOvercast
4:27 AM46.0 °F46.0 °F100 %29.79 in0.5 miWest (260°)4.6 mphFogFog
4:53 AM46.0 °F45.0 °F96 %29.78 in0.2 miWSW (240°)3.5 mphFogFog
5:28 AM52.0 °F51.1 °F97 %29.77 in1.5 miWSW (250°)5.8 mphOvercast
5:31 AM53.1 °F52.0 °F96 %29.78 in3.0 miWSW (250°)4.6 mphOvercast
5:46 AM52.0 °F52.0 °F100 %29.78 in1.8 miSSW (210°)5.8 mphOvercast
5:53 AM52.0 °F52.0 °F100 %29.78 in1.2 miSW (220°)6.9 mphOvercast
5:58 AM53.1 °F53.1 °F100 %29.78 in2.0 miWSW (240°)5.8 mphOvercast
6:04 AM54.0 °F53.1 °F97 %29.79 in4.0 miWSW (240°)4.6 mphOvercast
6:53 AM57.9 °F57.0 °F97 %29.80 in10.0 miWSW (240°)4.6 mphOvercast
7:53 AM59.0 °F57.9 °F96 %29.81 in10.0 miSW (230°)3.5 mph0.00 inOvercast
8:13 AM59.0 °F57.0 °F93 %29.84 in2.5 miWSW (250°)6.9 mph0.01 inRainLight Rain
8:20 AM60.1 °F57.9 °F93 %29.83 in7.0 miVariable5.8 mph0.01 inOvercast
8:53 AM57.9 °F57.0 °F97 %29.86 in7.0 miSW (220°)5.8 mph0.01 inOvercast
9:12 AM59.0 °F57.9 °F96 %29.86 in7.0 miSW (230°)9.2 mphOvercast
9:53 AM59.0 °F57.9 °F96 %29.89 in9.0 miSW (230°)8.1 mphOvercast
10:53 AM60.1 °F57.9 °F93 %29.92 in10.0 miSW (220°)11.5 mph17.3 mphOvercast
11:01 AM60.1 °F57.9 °F93 %29.91 in9.0 miSW (220°)9.2 mphOvercast
11:14 AM60.1 °F59.0 °F96 %29.91 in9.0 miSW (220°)9.2 mphOvercast
11:26 AM60.1 °F57.9 °F93 %29.91 in9.0 miSW (220°)9.2 mphOvercast
11:53 AM60.1 °F59.0 °F96 %29.90 in7.0 miSW (220°)8.1 mph0.00 inRainLight Rain
12:53 PM62.1 °F57.9 °F86 %29.86 in10.0 miSW (220°)6.9 mph0.00 inOvercast
1:53 PM63.0 °F57.9 °F84 %29.81 in10.0 miWSW (250°)4.6 mphMostly Cloudy
2:53 PM64.0 °F55.9 °F75 %29.78 in10.0 miSW (220°)12.7 mph19.6 mphPartly Cloudy
3:53 PM64.0 °F54.0 °F70 %29.83 in10.0 miWest (260°)8.1 mph21.9 mph0.00 inPartly Cloudy
4:53 PM63.0 °F55.0 °F75 %29.86 in10.0 miSSW (200°)4.6 mph0.00 inClear
5:53 PM61.0 °F54.0 °F78 %29.89 in10.0 miWSW (240°)5.8 mphClear
6:53 PM59.0 °F54.0 °F83 %29.91 in10.0 miSW (220°)3.5 mphClear
7:53 PM57.9 °F54.0 °F87 %29.91 in10.0 miSW (220°)4.6 mphClear
8:53 PM55.0 °F53.1 °F93 %29.96 in10.0 miSW (230°)3.5 mphClear
9:50 PM51.8 °F51.8 °F100 %29.95 in10.0 miSouth (180°)3.5 mphMostly Cloudy
9:53 PM52.0 °F51.1 °F97 %29.96 in10.0 miCalmScattered Clouds
10:08 PM53.1 °F52.0 °F96 %29.96 in10.0 miCalmMostly Cloudy
10:53 PM52.0 °F52.0 °F100 %29.96 in10.0 miSouth (170°)3.5 mphOvercast
11:53 PM52.0 °F51.1 °F97 %29.95 in10.0 miSSW (210°)3.5 mphOvercast
Hourly data recorded from KFWN, located miles away from Port Jervis, New York







STORIES FROM OUR PARTNERS